Location: Byszew
(52.1813°N, 19.2693°E)
Time: 00:57:23
(UTC+00:00)

Cosmos 2322 Rocket - Pass Details

Date: 29 June 2021
Orbit: 833 x 850 km, 71.0° (Epoch: 29 July)

Event Time Altitude Azimuth Distance (km) Brightness Sun altitude
Rises 22:04:29 0° 311° (NW) 3,424 6.2 -14.1°
Reaches altitude 10° 22:09:05 10° 345° (NNW) 2,485 6.1 -14.2°
Maximum altitude 22:10:50 11° 3° (N) 2,390 5.9 -14.2°
Drops below altitude 10° 22:12:34 10° 21° (NNE) 2,482 5.6 -14.3°
Sets 22:17:09 0° 55° (NE) 3,412 5.8 -14.4°
